Printer-friendly version
Follow the MPC on Twitter Follow the MPC on Facebook The MPC blog
Minor Planet Center

MPEC 2010-M55 : 2010 MZ1

The following Minor Planet Electronic Circular may be linked-to from your own Web pages, but must not otherwise be redistributed electronically.

A form allowing access to any MPEC is at the bottom of this page.


Read MPEC 2010-M54 Read MPEC 2010-M56


M.P.E.C. 2010-M55                                Issued 2010 June 24, 19:25 UT

     The Minor Planet Electronic Circulars contain information on unusual
         minor planets and routine data on comets.  They are published
   on behalf of Commission 20 of the International Astronomical Union by the
          Minor Planet Center, Smithsonian Astrophysical Observatory,
                          Cambridge, MA 02138, U.S.A.

             Prepared using the Tamkin Foundation Computer Network

                              MPC@CFA.HARVARD.EDU
       URL http://www.minorplanetcenter.org/iau/mpc.html  ISSN 1523-6714

                                   2010 MZ1

Observations:
     K10M01Z* C2010 06 24.23481 17 17 33.34 +08 33 12.0                 EM055G96
     K10M01Z  C2010 06 24.23614 17 17 33.54 +08 32 02.0                 EM055G96
     K10M01Z  C2010 06 24.23748 17 17 33.69 +08 30 50.7                 EM055G96
     K10M01Z  C2010 06 24.23886 17 17 33.93 +08 29 35.7                 EM055G96
     K10M01Z  C2010 06 24.27428 17 17 39.15 +07 57 49.3          18.9 V EM055G96
     K10M01Z  C2010 06 24.27459 17 17 39.18 +07 57 32.3          18.8 V EM055G96
     K10M01Z  C2010 06 24.27487 17 17 39.22 +07 57 17.5          19.1 V EM055G96
     K10M01Z  C2010 06 24.32925 17 17 47.43 +07 07 40.6          18.8 V EM055G96
     K10M01Z  C2010 06 24.32957 17 17 47.43 +07 07 22.8          18.6 V EM055G96
     K10M01Z  C2010 06 24.32988 17 17 47.50 +07 07 05.5          19.2 V EM055G96
     K10M01Z  C2010 06 24.33019 17 17 47.54 +07 06 49.6          19.9 V EM055G96
     K10M01Z  C2010 06 24.35813 17 17 52.10 +06 40 56.4          18.7 V EM055G96
     K10M01Z  C2010 06 24.35844 17 17 52.16 +06 40 39.3          18.6 V EM055G96
     K10M01Z  C2010 06 24.35873 17 17 52.22 +06 40 22.9          18.7 V EM055G96

Observer details:
G96 Mt. Lemmon Survey.  Observer A. R. Gibbs.  Measurers J. D. Ahern,
    E. C. Beshore, A. Boattini, G. J. Garradd, A. R. Gibbs, A. D. Grauer,
    R. E. Hill, R. A. Kowalski, S. M. Larson, R. H. McNaught.  1.5-m reflector
    + CCD.

Orbital elements:
2010 MZ1                                                 Earth MOID = 0.0197 AU
Epoch 2010 July 23.0 TT = JDT 2455400.5                 MPC
M  14.52116              (2000.0)            P               Q
n   0.52710332     Peri.  179.47305     +0.05932807     +0.92392577
a   1.5177685      Node    93.88895     -0.91724621     +0.19984554
e   0.3173029      Incl.   22.26035     -0.39387760     -0.32622529
P   1.87           H   25.6           G   0.15           U   9
Residuals in seconds of arc
100624 G96  0.1+  0.6-    100624 G96  0.1+  0.2-    100624 G96  0.2-  0.9+
100624 G96  0.2+  0.4+    100624 G96  0.1+  0.1+    100624 G96  0.1-  0.1-
100624 G96  0.6-  0.7+    100624 G96  0.4+  0.1-    100624 G96  0.0   0.1+
100624 G96  0.0   0.5-    100624 G96  0.4-  0.2-    100624 G96  0.2+  0.1-
100624 G96  0.3+  0.0     100624 G96  0.1-  0.4-

Ephemeris:
2010 MZ1                 a,e,i = 1.52, 0.32, 22                  q = 1.0362
Date    TT    R. A. (2000) Decl.     Delta      r     Elong.  Phase     V
2010 06 23    17 12.61   +23 23.5    0.0300   1.036   131.4    47.3    19.8
2010 06 25    17 21.38   -04 12.0    0.0214   1.036   157.0    22.6    18.4
2010 06 27    17 37.39   -44 34.1    0.0215   1.036   156.9    22.7    18.4
2010 06 29    18 14.05   -71 44.7    0.0301   1.037   131.4    47.3    19.9
2010 07 01    20 25.04   -83 53.2    0.0423   1.038   118.6    59.4    20.9
2010 07 03    01 34.77   -84 39.5    0.0557   1.039   111.8    65.3    21.7

Sonia Keys                   (C) Copyright 2010 MPC           M.P.E.C. 2010-M55

Read MPEC 2010-M54 Read MPEC 2010-M56


MPEC number:

Enter an MPEC number in one of the following forms:

  • 1997-B01 (the full form)
  • J97B01 (the packed version of the full form)
  • B01 (the abbreviated form)

Valid HTML 4.01!